Year,Month,Day,Hour,Minute,Value (Times are PST for temperature in C)
2015,08,18,00,00,13.30
2015,08,18,00,01,13.30
2015,08,18,00,02,13.30
2015,08,18,00,03,13.30
2015,08,18,00,04,13.30
2015,08,18,00,05,13.20
2015,08,18,00,06,13.20
2015,08,18,00,07,13.20
2015,08,18,00,08,13.20
2015,08,18,00,09,13.20
2015,08,18,00,10,13.20
2015,08,18,00,11,13.20
2015,08,18,00,12,13.20
2015,08,18,00,13,13.10
2015,08,18,00,14,13.10
2015,08,18,00,15,13.10
2015,08,18,00,16,13.10
2015,08,18,00,17,13.00
2015,08,18,00,18,13.00
2015,08,18,00,19,13.00
2015,08,18,00,20,13.00
2015,08,18,00,21,13.00
2015,08,18,00,22,13.00
2015,08,18,00,23,12.90
2015,08,18,00,24,12.90
2015,08,18,00,25,12.90
2015,08,18,00,26,12.90
2015,08,18,00,27,12.90
2015,08,18,00,28,12.90
2015,08,18,00,29,12.90
2015,08,18,00,30,12.90
2015,08,18,00,31,12.90
2015,08,18,00,32,12.90
2015,08,18,00,33,12.90
2015,08,18,00,34,12.90
2015,08,18,00,35,12.90
2015,08,18,00,36,12.90
2015,08,18,00,37,12.90
2015,08,18,00,38,12.90
2015,08,18,00,39,12.90
2015,08,18,00,40,12.90
2015,08,18,00,41,12.90
2015,08,18,00,42,12.80
2015,08,18,00,43,12.80
2015,08,18,00,44,12.80
2015,08,18,00,45,12.80
2015,08,18,00,46,12.80
2015,08,18,00,47,12.80
2015,08,18,00,48,12.80
2015,08,18,00,49,12.80
2015,08,18,00,50,12.70
2015,08,18,00,51,12.70
2015,08,18,00,52,12.70
2015,08,18,00,53,12.70
2015,08,18,00,54,12.70
2015,08,18,00,55,12.70
2015,08,18,00,56,12.70
2015,08,18,00,57,12.70
2015,08,18,00,58,12.60
2015,08,18,00,59,12.60
2015,08,18,01,00,12.60
2015,08,18,01,01,12.60
2015,08,18,01,02,12.60
2015,08,18,01,03,12.60
2015,08,18,01,04,12.60
2015,08,18,01,05,12.60
2015,08,18,01,06,12.60
2015,08,18,01,07,12.60
2015,08,18,01,08,12.60
2015,08,18,01,09,12.50
2015,08,18,01,10,12.50
2015,08,18,01,11,12.50
2015,08,18,01,12,12.50
2015,08,18,01,13,12.50
2015,08,18,01,14,12.40
2015,08,18,01,15,12.40
2015,08,18,01,16,12.40
2015,08,18,01,17,12.40
2015,08,18,01,18,12.40
2015,08,18,01,19,12.40
2015,08,18,01,20,12.40
2015,08,18,01,21,12.40
2015,08,18,01,22,12.40
2015,08,18,01,23,12.40
2015,08,18,01,24,12.40
2015,08,18,01,25,12.40
2015,08,18,01,26,12.40
2015,08,18,01,27,12.40
2015,08,18,01,28,12.40
2015,08,18,01,29,12.40
2015,08,18,01,30,12.40
2015,08,18,01,31,12.40
2015,08,18,01,32,12.40
2015,08,18,01,33,12.40
2015,08,18,01,34,12.40
2015,08,18,01,35,12.40
2015,08,18,01,36,12.40
2015,08,18,01,37,12.40
2015,08,18,01,38,12.40
2015,08,18,01,39,12.40
2015,08,18,01,40,12.40
2015,08,18,01,41,12.40
2015,08,18,01,42,12.40
2015,08,18,01,43,12.40
2015,08,18,01,44,12.40
2015,08,18,01,45,12.30
2015,08,18,01,46,12.30
2015,08,18,01,47,12.30
2015,08,18,01,48,12.30
2015,08,18,01,49,12.30
2015,08,18,01,50,12.30
2015,08,18,01,51,12.30
2015,08,18,01,52,12.30
2015,08,18,01,53,12.40
2015,08,18,01,54,12.40
2015,08,18,01,55,12.40
2015,08,18,01,56,12.40
2015,08,18,01,57,12.40
2015,08,18,01,58,12.40
2015,08,18,01,59,12.40
2015,08,18,02,00,12.40
2015,08,18,02,01,12.40
2015,08,18,02,02,12.40
2015,08,18,02,03,12.40
2015,08,18,02,04,12.40
2015,08,18,02,05,12.50
2015,08,18,02,06,12.50
2015,08,18,02,07,12.50
2015,08,18,02,08,12.50
2015,08,18,02,09,12.40
2015,08,18,02,10,12.40
2015,08,18,02,11,12.40
2015,08,18,02,12,12.40
2015,08,18,02,13,12.40
2015,08,18,02,14,12.40
2015,08,18,02,15,12.40
2015,08,18,02,16,12.30
2015,08,18,02,17,12.30
2015,08,18,02,18,12.30
2015,08,18,02,19,12.30
2015,08,18,02,20,12.30
2015,08,18,02,21,12.20
2015,08,18,02,22,12.20
2015,08,18,02,23,12.20
2015,08,18,02,24,12.20
2015,08,18,02,25,12.20
2015,08,18,02,26,12.20
2015,08,18,02,27,12.20
2015,08,18,02,28,12.20
2015,08,18,02,29,12.20
2015,08,18,02,30,12.20
2015,08,18,02,31,12.20
2015,08,18,02,32,12.20
2015,08,18,02,33,12.10
2015,08,18,02,34,12.10
2015,08,18,02,35,12.10
2015,08,18,02,36,12.10
2015,08,18,02,37,12.20
2015,08,18,02,38,12.20
2015,08,18,02,39,12.20
2015,08,18,02,40,12.20
2015,08,18,02,41,12.20
2015,08,18,02,42,12.20
2015,08,18,02,43,12.20
2015,08,18,02,44,12.20
2015,08,18,02,45,12.10
2015,08,18,02,46,12.10
2015,08,18,02,47,12.10
2015,08,18,02,48,12.10
2015,08,18,02,49,12.10
2015,08,18,02,50,12.10
2015,08,18,02,51,12.10
2015,08,18,02,52,12.10
2015,08,18,02,53,12.10
2015,08,18,02,54,12.10
2015,08,18,02,55,12.10
2015,08,18,02,56,12.10
2015,08,18,02,57,12.10
2015,08,18,02,58,12.20
2015,08,18,02,59,12.10
2015,08,18,03,00,12.10
2015,08,18,03,01,12.10
2015,08,18,03,02,12.10
2015,08,18,03,03,12.10
2015,08,18,03,04,12.10
2015,08,18,03,05,12.10
2015,08,18,03,06,12.10
2015,08,18,03,07,12.10
2015,08,18,03,08,12.10
2015,08,18,03,09,12.10
2015,08,18,03,10,12.10
2015,08,18,03,11,12.10
2015,08,18,03,12,12.10
2015,08,18,03,13,12.10
2015,08,18,03,14,12.10
2015,08,18,03,15,12.10
2015,08,18,03,16,12.10
2015,08,18,03,17,12.10
2015,08,18,03,18,12.10
2015,08,18,03,19,12.10
2015,08,18,03,20,12.10
2015,08,18,03,21,12.10
2015,08,18,03,22,12.10
2015,08,18,03,23,12.10
2015,08,18,03,24,12.10
2015,08,18,03,25,12.10
2015,08,18,03,26,12.10
2015,08,18,03,27,12.10
2015,08,18,03,28,12.20
2015,08,18,03,29,12.20
2015,08,18,03,30,12.20
2015,08,18,03,31,12.20
2015,08,18,03,32,12.20
2015,08,18,03,33,12.20
2015,08,18,03,34,12.20
2015,08,18,03,35,12.30
2015,08,18,03,36,12.30
2015,08,18,03,37,12.30
2015,08,18,03,38,12.30
2015,08,18,03,39,12.30
2015,08,18,03,40,12.40
2015,08,18,03,41,12.40
2015,08,18,03,42,12.40
2015,08,18,03,43,12.50
2015,08,18,03,44,12.50
2015,08,18,03,45,12.50
2015,08,18,03,46,12.40
2015,08,18,03,47,12.50
2015,08,18,03,48,12.50
2015,08,18,03,49,12.60
2015,08,18,03,50,12.60
2015,08,18,03,51,12.70
2015,08,18,03,52,12.70
2015,08,18,03,53,12.70
2015,08,18,03,54,12.80
2015,08,18,03,55,12.80
2015,08,18,03,56,12.80
2015,08,18,03,57,12.80
2015,08,18,03,58,12.70
2015,08,18,03,59,12.70
2015,08,18,04,00,12.70
2015,08,18,04,01,12.60
2015,08,18,04,02,12.60
2015,08,18,04,03,12.60
2015,08,18,04,04,12.60
2015,08,18,04,05,12.50
2015,08,18,04,06,12.50
2015,08,18,04,07,12.50
2015,08,18,04,08,12.50
2015,08,18,04,09,12.50
2015,08,18,04,10,12.60
2015,08,18,04,11,12.70
2015,08,18,04,12,12.70
2015,08,18,04,13,12.80
2015,08,18,04,14,12.80
2015,08,18,04,15,12.70
2015,08,18,04,16,12.70
2015,08,18,04,17,12.70
2015,08,18,04,18,12.70
2015,08,18,04,19,12.60
2015,08,18,04,20,12.60
2015,08,18,04,21,12.60
2015,08,18,04,22,12.60
2015,08,18,04,23,12.70
2015,08,18,04,24,12.70
2015,08,18,04,25,12.70
2015,08,18,04,26,12.70
2015,08,18,04,27,12.70
2015,08,18,04,28,12.70
2015,08,18,04,29,12.60
2015,08,18,04,30,12.60
2015,08,18,04,31,12.60
2015,08,18,04,32,12.60
2015,08,18,04,33,12.60
2015,08,18,04,34,12.60
2015,08,18,04,35,12.60
2015,08,18,04,36,12.60
2015,08,18,04,37,12.60
2015,08,18,04,38,12.60
2015,08,18,04,39,12.50
2015,08,18,04,40,12.50
2015,08,18,04,41,12.50
2015,08,18,04,42,12.50
2015,08,18,04,43,12.50
2015,08,18,04,44,12.40
2015,08,18,04,45,12.40
2015,08,18,04,46,12.40
2015,08,18,04,47,12.40
2015,08,18,04,48,12.40
2015,08,18,04,49,12.40
2015,08,18,04,50,12.40
2015,08,18,04,51,12.40
2015,08,18,04,52,12.30
2015,08,18,04,53,12.30
2015,08,18,04,54,12.30
2015,08,18,04,55,12.30
2015,08,18,04,56,12.30
2015,08,18,04,57,12.30
2015,08,18,04,58,12.30
2015,08,18,04,59,12.30
2015,08,18,05,00,12.30
2015,08,18,05,01,12.30
2015,08,18,05,02,12.30
2015,08,18,05,03,12.30
2015,08,18,05,04,12.30
2015,08,18,05,05,12.30
2015,08,18,05,06,12.30
2015,08,18,05,07,12.30
2015,08,18,05,08,12.30
2015,08,18,05,09,12.30
2015,08,18,05,10,12.30
2015,08,18,05,11,12.30
2015,08,18,05,12,12.20
2015,08,18,05,13,12.20
2015,08,18,05,14,12.20
2015,08,18,05,15,12.20
2015,08,18,05,16,12.20
2015,08,18,05,17,12.20
2015,08,18,05,18,12.20
2015,08,18,05,19,12.20
2015,08,18,05,20,12.20
2015,08,18,05,21,12.20
2015,08,18,05,22,12.20
2015,08,18,05,23,12.20
2015,08,18,05,24,12.20
2015,08,18,05,25,12.30
2015,08,18,05,26,12.40
2015,08,18,05,27,12.40
2015,08,18,05,28,12.50
2015,08,18,05,29,12.50
2015,08,18,05,30,12.60
2015,08,18,05,31,12.60
2015,08,18,05,32,12.70
2015,08,18,05,33,12.70
2015,08,18,05,34,12.80
2015,08,18,05,35,12.80
2015,08,18,05,36,12.80
2015,08,18,05,37,12.80
2015,08,18,05,38,12.80
2015,08,18,05,39,12.80
2015,08,18,05,40,12.80
2015,08,18,05,41,12.80
2015,08,18,05,42,12.70
2015,08,18,05,43,12.70
2015,08,18,05,44,12.70
2015,08,18,05,45,12.70
2015,08,18,05,46,12.70
2015,08,18,05,47,12.70
2015,08,18,05,48,12.70
2015,08,18,05,49,12.70
2015,08,18,05,50,12.80
2015,08,18,05,51,12.80
2015,08,18,05,52,12.80
2015,08,18,05,53,12.80
2015,08,18,05,54,12.90
2015,08,18,05,55,12.90
2015,08,18,05,56,13.00
2015,08,18,05,57,13.00
2015,08,18,05,58,13.00
2015,08,18,05,59,13.10
2015,08,18,06,00,13.10
2015,08,18,06,01,13.10
2015,08,18,06,02,13.10
2015,08,18,06,03,13.10
2015,08,18,06,04,13.00
2015,08,18,06,05,13.00
2015,08,18,06,06,12.90
2015,08,18,06,07,12.90
2015,08,18,06,08,12.90
2015,08,18,06,09,12.90
2015,08,18,06,10,12.80
2015,08,18,06,11,12.80
2015,08,18,06,12,12.80
2015,08,18,06,13,12.80
2015,08,18,06,14,12.80
2015,08,18,06,15,12.80
2015,08,18,06,16,12.80
2015,08,18,06,17,12.80
2015,08,18,06,18,12.80
2015,08,18,06,19,12.80
2015,08,18,06,20,12.80
2015,08,18,06,21,12.70
2015,08,18,06,22,12.70
2015,08,18,06,23,12.70
2015,08,18,06,24,12.70
2015,08,18,06,25,12.70
2015,08,18,06,26,12.60
2015,08,18,06,27,12.60
2015,08,18,06,28,12.60
2015,08,18,06,29,12.70
2015,08,18,06,30,12.70
2015,08,18,06,31,12.80
2015,08,18,06,32,12.80
2015,08,18,06,33,12.80
2015,08,18,06,34,12.80
2015,08,18,06,35,12.80
2015,08,18,06,36,12.80
2015,08,18,06,37,12.80
2015,08,18,06,38,12.70
2015,08,18,06,39,12.70
2015,08,18,06,40,12.70
2015,08,18,06,41,12.70
2015,08,18,06,42,12.70
2015,08,18,06,43,12.70
2015,08,18,06,44,12.70
2015,08,18,06,45,12.70
2015,08,18,06,46,12.60
2015,08,18,06,47,12.70
2015,08,18,06,48,12.70
2015,08,18,06,49,12.70
2015,08,18,06,50,12.80
2015,08,18,06,51,12.80
2015,08,18,06,52,12.80
2015,08,18,06,53,12.80
2015,08,18,06,54,12.80
2015,08,18,06,55,13.00
2015,08,18,06,56,13.00
2015,08,18,06,57,13.10
2015,08,18,06,58,13.20
2015,08,18,06,59,13.20
2015,08,18,07,00,13.30
2015,08,18,07,01,13.30
2015,08,18,07,02,13.40
2015,08,18,07,03,13.40
2015,08,18,07,04,13.40
2015,08,18,07,05,13.40
2015,08,18,07,06,13.40
2015,08,18,07,07,13.50
2015,08,18,07,08,13.50
2015,08,18,07,09,13.60
2015,08,18,07,10,13.60
2015,08,18,07,11,13.60
2015,08,18,07,12,13.60
2015,08,18,07,13,13.60
2015,08,18,07,14,13.70
2015,08,18,07,15,13.70
2015,08,18,07,16,13.70
2015,08,18,07,17,13.80
2015,08,18,07,18,13.80
2015,08,18,07,19,13.80
2015,08,18,07,20,13.90
2015,08,18,07,21,13.90
2015,08,18,07,22,13.90
2015,08,18,07,23,13.90
2015,08,18,07,24,13.90
2015,08,18,07,25,13.90
2015,08,18,07,26,13.90
2015,08,18,07,27,13.90
2015,08,18,07,28,13.90
2015,08,18,07,29,14.00
2015,08,18,07,30,14.10
2015,08,18,07,31,14.10
2015,08,18,07,32,14.20
2015,08,18,07,33,14.20
2015,08,18,07,34,14.20
2015,08,18,07,35,14.30
2015,08,18,07,36,14.30
2015,08,18,07,37,14.40
2015,08,18,07,38,14.50
2015,08,18,07,39,14.60
2015,08,18,07,40,14.70
2015,08,18,07,41,14.80
2015,08,18,07,42,14.80
2015,08,18,07,43,14.90
2015,08,18,07,44,15.00
2015,08,18,07,45,15.10
2015,08,18,07,46,15.10
2015,08,18,07,47,15.20
2015,08,18,07,48,15.30
2015,08,18,07,49,15.40
2015,08,18,07,50,15.50
2015,08,18,07,51,15.60
2015,08,18,07,52,15.70
2015,08,18,07,53,15.80
2015,08,18,07,54,15.80
2015,08,18,07,55,15.80
2015,08,18,07,56,15.90
2015,08,18,07,57,16.00
2015,08,18,07,58,16.00
2015,08,18,07,59,16.20
2015,08,18,08,00,16.30
2015,08,18,08,01,16.40
2015,08,18,08,02,16.40
2015,08,18,08,03,16.50
2015,08,18,08,04,16.60
2015,08,18,08,05,16.60
2015,08,18,08,06,16.60
2015,08,18,08,07,16.70
2015,08,18,08,08,16.80
2015,08,18,08,09,16.90
2015,08,18,08,10,17.00
2015,08,18,08,11,17.10
2015,08,18,08,12,17.20
2015,08,18,08,13,17.30
2015,08,18,08,14,17.30
2015,08,18,08,15,17.30
2015,08,18,08,16,17.40
2015,08,18,08,17,17.40
2015,08,18,08,18,17.50
2015,08,18,08,19,17.60
2015,08,18,08,20,17.70
2015,08,18,08,21,17.70
2015,08,18,08,22,17.80
2015,08,18,08,23,17.90
2015,08,18,08,24,18.00
2015,08,18,08,25,18.00
2015,08,18,08,26,18.10
2015,08,18,08,27,18.10
2015,08,18,08,28,18.20
2015,08,18,08,29,18.20
2015,08,18,08,30,18.20
2015,08,18,08,31,18.30
2015,08,18,08,32,18.30
2015,08,18,08,33,18.40
2015,08,18,08,34,18.40
2015,08,18,08,35,18.50
2015,08,18,08,36,18.50
2015,08,18,08,37,18.60
2015,08,18,08,38,18.70
2015,08,18,08,39,18.70
2015,08,18,08,40,18.80
2015,08,18,08,41,18.80
2015,08,18,08,42,18.90
2015,08,18,08,43,19.00
2015,08,18,08,44,19.10
2015,08,18,08,45,19.20
2015,08,18,08,46,19.20
2015,08,18,08,47,19.30
2015,08,18,08,48,19.30
2015,08,18,08,49,19.40
2015,08,18,08,50,19.40
2015,08,18,08,51,19.50
2015,08,18,08,52,19.50
2015,08,18,08,53,19.60
2015,08,18,08,54,19.60
2015,08,18,08,55,19.60
2015,08,18,08,56,19.60
2015,08,18,08,57,19.60
2015,08,18,08,58,19.60
2015,08,18,08,59,19.60
2015,08,18,09,00,19.60
2015,08,18,09,01,19.60
2015,08,18,09,02,19.60
2015,08,18,09,03,19.60
2015,08,18,09,04,19.70
2015,08,18,09,05,19.70
2015,08,18,09,06,19.80
2015,08,18,09,07,19.80
2015,08,18,09,08,19.80
2015,08,18,09,09,19.90
2015,08,18,09,10,19.90
2015,08,18,09,11,19.90
2015,08,18,09,12,19.90
2015,08,18,09,13,19.90
2015,08,18,09,14,20.00
2015,08,18,09,15,20.00
2015,08,18,09,16,20.00
2015,08,18,09,17,20.10
2015,08,18,09,18,20.10
2015,08,18,09,19,20.20
2015,08,18,09,20,20.20
2015,08,18,09,21,20.20
2015,08,18,09,22,20.20
2015,08,18,09,23,20.20
2015,08,18,09,24,20.30
2015,08,18,09,25,20.30
2015,08,18,09,26,20.40
2015,08,18,09,27,20.40
2015,08,18,09,28,20.40
2015,08,18,09,29,20.50
2015,08,18,09,30,20.50
2015,08,18,09,31,20.50
2015,08,18,09,32,20.60
2015,08,18,09,33,20.60
2015,08,18,09,34,20.70
2015,08,18,09,35,20.70
2015,08,18,09,36,20.70
2015,08,18,09,37,20.70
2015,08,18,09,38,20.80
2015,08,18,09,39,20.70
2015,08,18,09,40,20.70
2015,08,18,09,41,20.70
2015,08,18,09,42,20.80
2015,08,18,09,43,20.80
2015,08,18,09,44,20.80
2015,08,18,09,45,20.90
2015,08,18,09,46,21.00
2015,08,18,09,47,21.00
2015,08,18,09,48,21.00
2015,08,18,09,49,21.00
2015,08,18,09,50,21.00
2015,08,18,09,51,21.00
2015,08,18,09,52,21.10
2015,08,18,09,53,21.10
2015,08,18,09,54,21.10
2015,08,18,09,55,21.10
2015,08,18,09,56,21.20
2015,08,18,09,57,21.20
2015,08,18,09,58,21.20
2015,08,18,09,59,21.30
2015,08,18,10,00,21.30
2015,08,18,10,01,21.30
2015,08,18,10,02,21.30
2015,08,18,10,03,21.40
2015,08,18,10,04,21.40
2015,08,18,10,05,21.50
2015,08,18,10,06,21.60
2015,08,18,10,07,21.70
2015,08,18,10,08,21.80
2015,08,18,10,09,21.90
2015,08,18,10,10,21.90
2015,08,18,10,11,21.90
2015,08,18,10,12,21.90
2015,08,18,10,13,22.00
2015,08,18,10,14,22.00
2015,08,18,10,15,21.90
2015,08,18,10,16,21.80
2015,08,18,10,17,21.70
2015,08,18,10,18,21.60
2015,08,18,10,19,21.60
2015,08,18,10,20,21.60
2015,08,18,10,21,21.50
2015,08,18,10,22,21.50
2015,08,18,10,23,21.50
2015,08,18,10,24,21.50
2015,08,18,10,25,21.50
2015,08,18,10,26,21.50
2015,08,18,10,27,21.50
2015,08,18,10,28,21.60
2015,08,18,10,29,21.70
2015,08,18,10,30,21.70
2015,08,18,10,31,21.80
2015,08,18,10,32,21.80
2015,08,18,10,33,21.90
2015,08,18,10,34,21.90
2015,08,18,10,35,22.00
2015,08,18,10,36,22.00
2015,08,18,10,37,22.10
2015,08,18,10,38,22.20
2015,08,18,10,39,22.20
2015,08,18,10,40,22.30
2015,08,18,10,41,22.40
2015,08,18,10,42,22.50
2015,08,18,10,43,22.60
2015,08,18,10,44,22.70
2015,08,18,10,45,22.70
2015,08,18,10,46,22.70
2015,08,18,10,47,22.60
2015,08,18,10,48,22.60
2015,08,18,10,49,22.70
2015,08,18,10,50,22.70
2015,08,18,10,51,22.70
2015,08,18,10,52,22.80
2015,08,18,10,53,22.80
2015,08,18,10,54,22.90
2015,08,18,10,55,23.00
2015,08,18,10,56,23.10
2015,08,18,10,57,23.20
2015,08,18,10,58,23.30
2015,08,18,10,59,23.40
2015,08,18,11,00,23.50
2015,08,18,11,01,23.50
2015,08,18,11,02,23.60
2015,08,18,11,03,23.60
2015,08,18,11,04,23.60
2015,08,18,11,05,23.60
2015,08,18,11,06,23.70
2015,08,18,11,07,23.70
2015,08,18,11,08,23.80
2015,08,18,11,09,23.80
2015,08,18,11,10,23.80
2015,08,18,11,11,23.90
2015,08,18,11,12,23.90
2015,08,18,11,13,24.00
2015,08,18,11,14,24.10
2015,08,18,11,15,24.10
2015,08,18,11,16,24.20
2015,08,18,11,17,24.20
2015,08,18,11,18,24.20
2015,08,18,11,19,24.30
2015,08,18,11,20,24.30
2015,08,18,11,21,24.40
2015,08,18,11,22,24.40
2015,08,18,11,23,24.50
2015,08,18,11,24,24.60
2015,08,18,11,25,24.70
2015,08,18,11,26,24.80
2015,08,18,11,27,24.80
2015,08,18,11,28,24.90
2015,08,18,11,29,25.00
2015,08,18,11,30,25.00
2015,08,18,11,31,25.00
2015,08,18,11,32,25.00
2015,08,18,11,33,24.90
2015,08,18,11,34,24.90
2015,08,18,11,35,24.80
2015,08,18,11,36,24.90
2015,08,18,11,37,24.90
2015,08,18,11,38,24.90
2015,08,18,11,39,24.90
2015,08,18,11,40,25.00
2015,08,18,11,41,25.00
2015,08,18,11,42,25.00
2015,08,18,11,43,25.00
2015,08,18,11,44,25.00
2015,08,18,11,45,24.90
2015,08,18,11,46,24.90
2015,08,18,11,47,24.90
2015,08,18,11,48,24.90
2015,08,18,11,49,24.90
2015,08,18,11,50,24.90
2015,08,18,11,51,24.90
2015,08,18,11,52,24.90
2015,08,18,11,53,24.90
2015,08,18,11,54,24.80
2015,08,18,11,55,24.80
2015,08,18,11,56,24.80
2015,08,18,11,57,24.80
2015,08,18,11,58,24.80
2015,08,18,11,59,24.80
2015,08,18,12,00,24.80
2015,08,18,12,01,24.80
2015,08,18,12,02,24.80
2015,08,18,12,03,24.70
2015,08,18,12,04,24.70
2015,08,18,12,05,24.60
2015,08,18,12,06,24.60
2015,08,18,12,07,24.60
2015,08,18,12,08,24.60
2015,08,18,12,09,24.60
2015,08,18,12,10,24.70
2015,08,18,12,11,24.80
2015,08,18,12,12,24.80
2015,08,18,12,13,24.90
2015,08,18,12,14,24.90
2015,08,18,12,15,24.80
2015,08,18,12,16,24.80
2015,08,18,12,17,24.70
2015,08,18,12,18,24.70
2015,08,18,12,19,24.70
2015,08,18,12,20,24.80
2015,08,18,12,21,24.80
2015,08,18,12,22,24.90
2015,08,18,12,23,24.90
2015,08,18,12,24,24.90
2015,08,18,12,25,25.00
2015,08,18,12,26,25.00
2015,08,18,12,27,25.10
2015,08,18,12,28,25.20
2015,08,18,12,29,25.30
2015,08,18,12,30,25.30
2015,08,18,12,31,25.40
2015,08,18,12,32,25.50
2015,08,18,12,33,25.50
2015,08,18,12,34,25.60
2015,08,18,12,35,25.70
2015,08,18,12,36,25.70
2015,08,18,12,37,25.70
2015,08,18,12,38,25.70
2015,08,18,12,39,25.70
2015,08,18,12,40,25.60
2015,08,18,12,41,25.60
2015,08,18,12,42,25.70
2015,08,18,12,43,25.70
2015,08,18,12,44,25.60
2015,08,18,12,45,25.60
2015,08,18,12,46,25.60
2015,08,18,12,47,25.60
2015,08,18,12,48,25.60
2015,08,18,12,49,25.70
2015,08,18,12,50,25.70
2015,08,18,12,51,25.70
2015,08,18,12,52,25.70
2015,08,18,12,53,25.80
2015,08,18,12,54,25.80
2015,08,18,12,55,25.80
2015,08,18,12,56,25.80
2015,08,18,12,57,25.80
2015,08,18,12,58,25.70
2015,08,18,12,59,25.60
2015,08,18,13,00,25.50
2015,08,18,13,01,25.50
2015,08,18,13,02,25.50
2015,08,18,13,03,25.50
2015,08,18,13,04,25.60
2015,08,18,13,05,25.70
2015,08,18,13,06,25.60
2015,08,18,13,07,25.60
2015,08,18,13,08,25.60
2015,08,18,13,09,25.60
2015,08,18,13,10,25.60
2015,08,18,13,11,25.60
2015,08,18,13,12,25.60
2015,08,18,13,13,25.60
2015,08,18,13,14,25.60
2015,08,18,13,15,25.70
2015,08,18,13,16,25.70
2015,08,18,13,17,25.70
2015,08,18,13,18,25.80
2015,08,18,13,19,25.80
2015,08,18,13,20,25.90
2015,08,18,13,21,25.90
2015,08,18,13,22,25.90
2015,08,18,13,23,26.00
2015,08,18,13,24,26.10
2015,08,18,13,25,26.20
2015,08,18,13,26,26.20
2015,08,18,13,27,26.30
2015,08,18,13,28,26.30
2015,08,18,13,29,26.40
2015,08,18,13,30,26.50
2015,08,18,13,31,26.50
2015,08,18,13,32,26.50
2015,08,18,13,33,26.50
2015,08,18,13,34,26.40
2015,08,18,13,35,26.30
2015,08,18,13,36,26.20
2015,08,18,13,37,26.20
2015,08,18,13,38,26.10
2015,08,18,13,39,26.10
2015,08,18,13,40,26.10
2015,08,18,13,41,26.10
2015,08,18,13,42,26.10
2015,08,18,13,43,26.20
2015,08,18,13,44,26.20
2015,08,18,13,45,26.30
2015,08,18,13,46,26.30
2015,08,18,13,47,26.30
2015,08,18,13,48,26.40
2015,08,18,13,49,26.40
2015,08,18,13,50,26.40
2015,08,18,13,51,26.30
2015,08,18,13,52,26.30
2015,08,18,13,53,26.30
2015,08,18,13,54,26.30
2015,08,18,13,55,26.30
2015,08,18,13,56,26.40
2015,08,18,13,57,26.40
2015,08,18,13,58,26.50
2015,08,18,13,59,26.60
2015,08,18,14,00,26.60
2015,08,18,14,01,26.70
2015,08,18,14,02,26.70
2015,08,18,14,03,26.70
2015,08,18,14,04,26.70
2015,08,18,14,05,26.60
2015,08,18,14,06,26.60
2015,08,18,14,07,26.60
2015,08,18,14,08,26.60
2015,08,18,14,09,26.70
2015,08,18,14,10,26.70
2015,08,18,14,11,26.70
2015,08,18,14,12,26.70
2015,08,18,14,13,26.60
2015,08,18,14,14,26.50
2015,08,18,14,15,26.40
2015,08,18,14,16,26.40
2015,08,18,14,17,26.30
2015,08,18,14,18,26.20
2015,08,18,14,19,26.20
2015,08,18,14,20,26.00
2015,08,18,14,21,26.00
2015,08,18,14,22,26.00
2015,08,18,14,23,26.10
2015,08,18,14,24,26.10
2015,08,18,14,25,26.20
2015,08,18,14,26,26.20
2015,08,18,14,27,26.30
2015,08,18,14,28,26.40
2015,08,18,14,29,26.60
2015,08,18,14,30,26.60
2015,08,18,14,31,26.60
2015,08,18,14,32,26.60
2015,08,18,14,33,26.60
2015,08,18,14,34,26.70
2015,08,18,14,35,26.70
2015,08,18,14,36,26.70
2015,08,18,14,37,26.70
2015,08,18,14,38,26.70
2015,08,18,14,39,26.60
2015,08,18,14,40,26.60
2015,08,18,14,41,26.70
2015,08,18,14,42,26.70
2015,08,18,14,43,26.80
2015,08,18,14,44,26.80
2015,08,18,14,45,26.80
2015,08,18,14,46,26.70
2015,08,18,14,47,26.60
2015,08,18,14,48,26.60
2015,08,18,14,49,26.60
2015,08,18,14,50,26.70
2015,08,18,14,51,26.80
2015,08,18,14,52,26.90
2015,08,18,14,53,27.10
2015,08,18,14,54,27.20
2015,08,18,14,55,27.30
2015,08,18,14,56,27.30
2015,08,18,14,57,27.30
2015,08,18,14,58,27.30
2015,08,18,14,59,27.30
2015,08,18,15,00,27.20
2015,08,18,15,01,27.20
2015,08,18,15,02,27.20
2015,08,18,15,03,27.20
2015,08,18,15,04,27.20
2015,08,18,15,05,27.20
2015,08,18,15,06,27.20
2015,08,18,15,07,27.20
2015,08,18,15,08,27.20
2015,08,18,15,09,27.10
2015,08,18,15,10,27.20
2015,08,18,15,11,27.20
2015,08,18,15,12,27.20
2015,08,18,15,13,27.30
2015,08,18,15,14,27.30
2015,08,18,15,15,27.30
2015,08,18,15,16,27.20
2015,08,18,15,17,27.10
2015,08,18,15,18,27.00
2015,08,18,15,19,26.80
2015,08,18,15,20,26.70
2015,08,18,15,21,26.50
2015,08,18,15,22,26.30
2015,08,18,15,23,26.30
2015,08,18,15,24,26.30
2015,08,18,15,25,26.30
2015,08,18,15,26,26.30
2015,08,18,15,27,26.30
2015,08,18,15,28,26.30
2015,08,18,15,29,26.30
2015,08,18,15,30,26.30
2015,08,18,15,31,26.30
2015,08,18,15,32,26.30
2015,08,18,15,33,26.30
2015,08,18,15,34,26.30
2015,08,18,15,35,26.30
2015,08,18,15,36,26.30
2015,08,18,15,37,26.40
2015,08,18,15,38,26.50
2015,08,18,15,39,26.60
2015,08,18,15,40,26.60
2015,08,18,15,41,26.60
2015,08,18,15,42,26.60
2015,08,18,15,43,26.60
2015,08,18,15,44,26.60
2015,08,18,15,45,26.60
2015,08,18,15,46,26.60
2015,08,18,15,47,26.50
2015,08,18,15,48,26.50
2015,08,18,15,49,26.40
2015,08,18,15,50,26.40
2015,08,18,15,51,26.50
2015,08,18,15,52,26.50
2015,08,18,15,53,26.60
2015,08,18,15,54,26.60
2015,08,18,15,55,26.70
2015,08,18,15,56,26.70
2015,08,18,15,57,26.80
2015,08,18,15,58,26.80
2015,08,18,15,59,26.90
2015,08,18,16,00,27.00
2015,08,18,16,01,27.00
2015,08,18,16,02,27.10
2015,08,18,16,03,27.20
2015,08,18,16,04,27.30
2015,08,18,16,05,27.40
2015,08,18,16,06,27.40
2015,08,18,16,07,27.50
2015,08,18,16,08,27.60
2015,08,18,16,09,27.60
2015,08,18,16,10,27.70
2015,08,18,16,11,27.70
2015,08,18,16,12,27.80
2015,08,18,16,13,27.80
2015,08,18,16,14,27.80
2015,08,18,16,15,27.70
2015,08,18,16,16,27.70
2015,08,18,16,17,27.60
2015,08,18,16,18,27.50
2015,08,18,16,19,27.40
2015,08,18,16,20,27.30
2015,08,18,16,21,27.30
2015,08,18,16,22,27.20
2015,08,18,16,23,27.20
2015,08,18,16,24,27.10
2015,08,18,16,25,27.10
2015,08,18,16,26,27.00
2015,08,18,16,27,27.00
2015,08,18,16,28,27.00
2015,08,18,16,29,27.00
2015,08,18,16,30,27.00
2015,08,18,16,31,27.00
2015,08,18,16,32,27.00
2015,08,18,16,33,26.90
2015,08,18,16,34,26.90
2015,08,18,16,35,26.90
2015,08,18,16,36,26.90
2015,08,18,16,37,26.90
2015,08,18,16,38,26.90
2015,08,18,16,39,26.90
2015,08,18,16,40,27.00
2015,08,18,16,41,27.00
2015,08,18,16,42,27.10
2015,08,18,16,43,27.20
2015,08,18,16,44,27.20
2015,08,18,16,45,27.20
2015,08,18,16,46,27.30
2015,08,18,16,47,27.30
2015,08,18,16,48,27.30
2015,08,18,16,49,27.30
2015,08,18,16,50,27.30
2015,08,18,16,51,27.30
2015,08,18,16,52,27.40
2015,08,18,16,53,27.40
2015,08,18,16,54,27.40
2015,08,18,16,55,27.50
2015,08,18,16,56,27.50
2015,08,18,16,57,27.60
2015,08,18,16,58,27.60
2015,08,18,16,59,27.60
2015,08,18,17,00,27.60
2015,08,18,17,01,27.60
2015,08,18,17,02,27.70
2015,08,18,17,03,27.80
2015,08,18,17,04,27.80
2015,08,18,17,05,27.80
2015,08,18,17,06,27.80
2015,08,18,17,07,27.80
2015,08,18,17,08,27.80
2015,08,18,17,09,27.80
2015,08,18,17,10,27.80
2015,08,18,17,11,27.70
2015,08,18,17,12,27.70
2015,08,18,17,13,27.60
2015,08,18,17,14,27.60
2015,08,18,17,15,27.60
2015,08,18,17,16,27.60
2015,08,18,17,17,27.60
2015,08,18,17,18,27.70
2015,08,18,17,19,27.70